Flag for Spain Weather past 2 weeks in Santander, Spain

Now
68 °F

Passing clouds.


Feels Like: 68 °F
Forecast: 59 / 73 °F
Wind: 10 mph from Northeast

Location: Santander / Parayas

Current Time: Oct 2, 2014 at 1:26:44 PM

Latest Report: Oct 2, 2014 at 1:00 PM


Visibility: N/A

Pressure: 30.30 "Hg

Humidity: 73%

Dew point: 59 °F

Location of SantanderLocation

Historic Weather in Santander — Graph

°F

Santander temperature yesterday

Maximum temperature yesterday: 73 °F (at 1:00 PM)
Minimum temperature yesterday: 55 °F (at 7:00 AM)
Average temperature yesterday: 64 °F

Past Weeks' High & Low Weather Summary

 TemperatureHumidityPressure
High88 °F (Sep 17, 4:30 PM)100% (Sep 22, 5:30 AM)30.36 "Hg (Sep 22, 5:30 AM)
Low54 °F (Sep 26, 5:30 AM)24% (Sep 18, 5:00 PM)29.56 "Hg (Sep 17, 12:00 PM)
Average67 °F72%30.07 "Hg
* Reported Sep 17 12:00 Noon — Oct 2 12:30 PM, Santander, Weather by CustomWeather, © 2014

Note: Actual official high and low records may vary slightly from our data, if they occured in-between our weather recording intervals... More about our weather records

Advertising

Santander weather history for previous 24 hours

 ConditionsComfort  
Time TempWeatherWind HumidityBarometerVisibility
12:30 PM
Oct 2
72 °FPassing clouds.8 mph61%30.30 "HgN/A
12:00 PM70 °FPassing clouds.8 mph64%30.30 "HgN/A
11:30 AM66 °FSunny.2 mph78%30.30 "Hg10 mi
11:00 AM64 °FSunny.1 mph78%30.30 "Hg10 mi
10:30 AM63 °FSunny.2 mph83%30.30 "Hg10 mi
10:00 AM59 °FSunny.No wind88%30.30 "Hg10 mi
9:30 AM57 °FPassing clouds.3 mph94%30.30 "HgN/A
9:00 AM57 °FPassing clouds.2 mph94%30.30 "Hg5 mi
8:30 AM55 °FClear.No wind94%30.30 "Hg5 mi
8:00 AM55 °FClear.No wind94%30.30 "Hg5 mi
7:30 AM55 °FClear.No wind94%30.30 "Hg6 mi
7:00 AM55 °FClear.No wind94%30.30 "Hg6 mi
6:30 AM57 °FClear.No wind94%30.30 "Hg10 mi
6:00 AM57 °FClear.No wind94%30.30 "Hg10 mi
5:30 AM57 °FClear.No wind94%30.30 "Hg10 mi
11:00 PM
Oct 1
64 °FPassing clouds.2 mph88%30.36 "HgN/A
10:30 PM64 °FPassing clouds.5 mph88%30.33 "HgN/A
10:00 PM64 °FPassing clouds.3 mph88%30.33 "HgN/A
9:30 PM64 °FPassing clouds.6 mph88%30.33 "HgN/A
9:00 PM66 °FPassing clouds.6 mph83%30.33 "HgN/A
8:30 PM66 °FPassing clouds.8 mph83%30.33 "HgN/A
8:00 PM68 °FPassing clouds.9 mph78%30.30 "HgN/A
7:30 PM68 °FPassing clouds.9 mph78%30.30 "HgN/A
7:00 PM68 °FPassing clouds.12 mph73%30.30 "HgN/A
6:30 PM68 °FPassing clouds.10 mph69%30.30 "HgN/A
6:00 PM68 °FPassing clouds.14 mph73%30.30 "HgN/A
5:30 PM68 °FPassing clouds.14 mph78%30.30 "HgN/A
5:00 PM70 °FPassing clouds.14 mph73%30.27 "HgN/A
4:30 PM70 °FPassing clouds.13 mph73%30.27 "HgN/A
4:00 PM68 °FPassing clouds.13 mph78%30.27 "HgN/A
3:30 PM70 °FPassing clouds.15 mph73%30.27 "HgN/A
3:00 PM68 °FPassing clouds.16 mph78%30.30 "HgN/A
2:30 PM68 °FPassing clouds.15 mph78%30.30 "HgN/A
2:00 PM72 °FPassing clouds.10 mph65%30.30 "HgN/A
1:30 PM73 °FPassing clouds.7 mph57%30.30 "HgN/A
1:00 PM73 °FPassing clouds.8 mph53%30.33 "HgN/A
Weather by CustomWeather, © 2014

See weather overviewHow to use our weather pages